EW4210 Weather Reports


Display with metric or nautical units.
time (UTC)temp
F
wind
direction
speed
MPH
gust
MPH
rain 1hr
in
rain 24hr
in
rain mn
in
humidity
%
barometer
mb
20260504190016 78 254 3.0 9.0 0.00 0.00 0.00 45 1009.8
20260504184553 78 303 3.0 9.0 0.00 0.00 0.00 46 1009.8
20260504183035 78 24 1.0 6.0 0.00 0.00 0.00 48 1010.2
20260504181517 77 45 2.0 9.0 0.00 0.00 0.00 47 1010.0
20260504180057 78 286 3.0 7.0 0.00 0.00 0.00 46 1010.2
20260504174535 77 265 2.0 7.0 0.00 0.00 0.00 46 1010.3
20260504173011 77 272 3.0 9.0 0.00 0.00 0.00 46 1010.6
20260504171549 76 295 2.0 11.0 0.00 0.00 0.00 48 1010.8
20260504081512 61 274 0.0 0.0 0.00 0.00 0.00 74 1012.2
20260504050014 68 162 0.0 0.0 0.00 0.00 0.00 61 1013.3
20260504044549 68 156 0.0 2.0 0.00 0.00 0.00 61 1013.3
20260504043029 69 277 0.0 2.0 0.00 0.00 0.00 61 1013.3
20260504041513 69 293 0.0 2.0 0.00 0.00 0.00 60 1013.4
20260504040057 69 266 0.0 3.0 0.00 0.00 0.00 60 1013.4
20260504034530 69 336 0.0 1.0 0.00 0.00 0.00 60 1013.6
20260504033012 70 274 0.0 2.0 0.00 0.00 0.00 60 1013.7
20260504031549 69 257 0.0 2.0 0.00 0.00 0.00 59 1013.6
20260504030029 70 217 0.0 2.0 0.00 0.00 0.00 59 1013.6
20260504024511 70 277 0.0 1.0 0.00 0.00 0.00 58 1013.5
20260504023052 71 250 0.0 2.0 0.00 0.00 0.00 58 1013.4
20260504021538 71 297 0.0 2.0 0.00 0.00 0.00 55 1013.4
20260504020014 72 254 0.0 1.0 0.00 0.00 0.00 54 1013.4
20260504014503 72 267 0.0 2.0 0.00 0.00 0.00 53 1013.2
20260504013039 73 274 0.0 3.0 0.00 0.00 0.00 52 1013.2
20260504011525 73 315 0.0 2.0 0.00 0.00 0.00 51 1013.1
20260504010002 74 284 0.0 2.0 0.00 0.00 0.00 50 1013.2
20260504004548 75 313 0.0 2.0 0.00 0.00 0.00 49 1013.1
20260504003043 76 310 0.0 1.0 0.00 0.00 0.00 47 1013.0
20260504001516 77 204 0.0 2.0 0.00 0.00 0.00 45 1013.1
20260504000134 77 210 0.0 4.0 0.00 0.00 0.00 44 1013.3
20260503234540 77 187 0.0 3.0 0.00 0.00 0.00 45 1013.3
20260503233018 78 279 0.0 2.0 0.00 0.00 0.00 43 1013.4
20260503231558 78 222 1.0 4.0 0.00 0.00 0.00 42 1013.5
20260503231502 78 252 1.0 4.0 0.00 0.00 0.00 42 1013.5
20260503230052 78 268 1.0 4.0 0.00 0.00 0.00 42 1013.5
20260503224535 78 254 1.0 5.0 0.00 0.00 0.00 42 1013.6
20260503223016 78 264 1.0 3.0 0.00 0.00 0.00 41 1013.8
20260503221600 78 160 1.0 3.0 0.00 0.00 0.00 44 1014.0
20260503220038 78 272 3.0 6.0 0.00 0.00 0.00 40 1014.2
20260503214519 78 281 2.0 6.0 0.00 0.00 0.00 40 1014.4
20260503213052 78 216 1.0 4.0 0.00 0.00 0.00 40 1014.6
20260503211538 78 242 1.0 3.0 0.00 0.00 0.00 42 1015.0
20260503210022 78 257 2.0 7.0 0.00 0.00 0.00 41 1015.1
20260503204558 78 289 2.0 7.0 0.00 0.00 0.00 40 1015.3
20260503203100 78 276 1.0 6.0 0.00 0.00 0.00 43 1015.6
20260503201525 78 304 2.0 6.0 0.00 0.00 0.00 41 1015.9
20260503200006 78 331 2.0 5.0 0.00 0.00 0.00 42 1016.2
20260503194542 76 179 0.0 7.0 0.00 0.00 0.00 41 1016.5
20260503193022 76 125 2.0 8.0 0.00 0.00 0.00 44 1016.8
20260503191604 75 296 2.0 4.0 0.00 0.00 0.00 47 1017.0
20260503191506 75 229 2.0 4.0 0.00 0.00 0.00 45 1017.1